Temp
12 12 12 13 13 12 12 12 12 12 12 12 12 12 12 12 12 12 11 12 11 10 10 11 11 10 10 10 10 11 11 10 10 10 11 10 10 10 10 10 10 10 10
13 12 12 12 13 13 12 11 11 12 12 12 12 12 12 11 12 12 10 11 11 10 10 10 10 10 10 10 10 11 10 10 10 10 10 10 10 10 10 10 10 10 10
14 13 12 12 12 13 13 12 11 12 12 12 12 12 11 11 11 11 11 9 11 10 10 10 10 10 9 9 9 9 9 10 10 10 9 9 9 9 9 9 9 9 8
15 15 14 12 12 11 12 12 12 12 12 12 12 11 11 11 11 11 11 11 10 9 10 10 9 9 9 9 9 9 9 9 9 9 9 9 8 8 8 8 8 8 6
15 15 14 13 13 12 11 12 12 12 12 12 11 11 11 11 11 11 11 11 11 10 9 10 9 9 9 9 9 8 8 8 8 8 8 7 7 7 7 7 7 5 4
15 15 14 14 13 11 12 12 12 12 12 11 11 11 11 11 11 11 11 11 11 10 10 10 10 9 9 9 8 8 8 8 8 8 7 7 7 6 4 3 3 3 3
17 16 15 14 13 13 12 12 13 12 12 11 11 11 11 11 11 11 11 11 11 10 10 10 9 9 9 8 8 8 8 7 7 7 7 7 6 6 3 3 3 3 3
17 17 16 16 15 14 12 12 12 12 12 11 11 10 10 10 11 11 11 11 11 10 10 10 9 9 9 8 8 7 7 7 7 7 6 6 6 5 3 2 2 3 3
17 17 17 16 16 15 14 14 13 12 12 12 11 11 10 11 10 11 11 11 11 10 9 9 9 8 8 7 7 7 7 7 6 6 6 5 5 5 3 2 2 2 2
17 17 17 16 16 16 15 15 14 13 12 12 11 11 11 12 11 10 11 11 10 9 9 8 8 7 7 6 6 6 6 6 5 5 5 4 4 3 2 1 1 2 2
17 17 16 16 16 16 15 15 15 13 13 12 12 12 11 11 11 11 10 11 10 10 9 8 7 7 6 6 6 5 5 5 4 4 4 4 4 4 2 0 0 1 1
16 16 16 16 16 15 15 15 15 13 13 11 12 11 11 11 11 11 10 9 9 9 8 7 7 6 6 5 4 4 4 4 4 4 4 3 3 3 1 1 -0 -1 -1
14 15 15 15 15 15 15 15 15 14 13 12 12 11 11 10 10 10 9 9 8 8 7 6 6 5 4 4 4 3 3 3 3 3 3 3 2 2 2 2 0 -1 -2
13 14 13 13 13 13 14 14 14 14 14 13 11 10 10 9 9 8 7 8 7 7 6 6 5 4 3 2 2 2 2 2 2 2 2 2 1 1 1 1 -0 -2 -3
13 13 13 13 13 12 12 11 11 13 13 10 10 10 8 8 8 7 6 6 4 4 5 3 2 2 1 1 -0 -0 0 1 1 1 1 1 -0 -0 -0 -1 -3 -4 -4
14 14 14 13 13 12 12 11 10 10 10 10 9 9 7 6 6 5 5 4 3 3 2 2 1 1 1 -1 -1 -2 -1 -1 -1 0 0 -1 -1 -2 -3 -4 -5 -5 -4
13 13 13 12 11 9 9 9 9 9 9 9 8 7 7 6 3 4 3 3 2 2 1 0 0 -0 -0 -2 -2 -1 -1 -2 -2 -2 -2 -3 -3 -3 -5 -6 -6 -6 -5
12 11 11 9 8 7 8 8 8 8 8 7 7 6 6 2 3 3 2 2 1 1 0 -0 -0 -1 -0 -1 -1 -2 -2 -2 -3 -2 -2 -3 -3 -3 -3 -4 -5 -6 -6
10 8 6 7 7 7 7 7 7 7 6 4 3 3 2 2 2 2 1 1 0 -0 -1 -1 -3 -2 -2 -2 -4 -5 -5 -3 -5 -3 -4 -3 -3 -4 -4 -4 -5 -6 -5
6 6 5 6 6 6 6 6 5 4 3 2 2 2 1 1 1 0 -0 -0 -1 -2 -3 -4 -4 -5 -6 -6 -6 -6 -6 -6 -7 -5 -6 -4 -3 -3 -3 -3 -3 -4 -4
5 4 4 4 4 4 3 2 1 2 2 2 2 1 1 0 -0 -0 -2 -1 -2 -2 -3 -4 -6 -6 -6 -6 -6 -7 -7 -7 -7 -6 -7 -7 -6 -6 -5 -4 -4 -4 -4
2 2 1 -0 -1 -1 -1 -0 0 1 1 1 1 0 -0 -0 -2 -2 -2 -3 -3 -4 -6 -7 -7 -7 -6 -6 -7 -7 -8 -8 -8 -6 -7 -7 -7 -6 -4 -4 -4 -4 -4
0 -0 -1 -1 -2 -1 -1 -1 -1 -1 -0 -0 -0 -1 -1 -2 -3 -3 -3 -3 -4 -5 -6 -7 -7 -7 -7 -7 -8 -8 -8 -8 -8 -7 -8 -8 -7 -7 -7 -7 -4 -4 -4
-1 -2 -2 -1 -1 -2 -1 -1 -1 -1 -2 -2 -1 -2 -3 -3 -3 -3 -4 -4 -4 -5 -6 -7 -8 -8 -8 -8 -8 -8 -8 -8 -8 -7 -8 -8 -7 -8 -8 -7 -5 -4 -4
-1 -1 -1 -2 -1 -2 -2 -3 -2 -1 -2 -2 -2 -3 -2 -3 -4 -4 -6 -6 -7 -6 -6 -6 -6 -6 -6 -6 -7 -7 -7 -8 -8 -7 -7 -8 -7 -8 -8 -5 -5 -5 -5
-2 -2 -2 -2 -2 -2 -2 -2 -2 -3 -3 -3 -3 -3 -4 -5 -5 -7 -6 -7 -6 -7 -6 -6 -6 -6 -6 -6 -6 -7 -7 -7 -8 -8 -7 -8 -7 -9 -9 -7 -7 -6 -5
Height
1548 1550 1550 1551 1551 1553 1555 1555 1556 1557 1558 1558 1559 1559 1559 1559 1559 1560 1560 1559 1558 1558 1558 1557 1555 1555 1555 1554 1554 1554 1553 1554 1553 1553 1553 1552 1552 1551 1551 1550 1549 1548 1548
1545 1546 1548 1548 1549 1550 1552 1553 1554 1555 1556 1556 1557 1558 1558 1558 1557 1557 1558 1556 1557 1557 1556 1556 1555 1554 1554 1553 1552 1552 1552 1551 1551 1551 1551 1550 1549 1549 1548 1548 1547 1547 1546
1541 1542 1545 1545 1546 1547 1548 1550 1551 1552 1553 1554 1555 1555 1556 1556 1555 1555 1554 1555 1554 1554 1554 1554 1554 1553 1553 1552 1551 1550 1549 1549 1549 1549 1549 1548 1548 1547 1546 1545 1545 1544 1544
1538 1538 1540 1541 1543 1544 1545 1546 1547 1549 1550 1551 1552 1553 1553 1553 1553 1552 1552 1552 1552 1551 1551 1551 1552 1552 1551 1551 1550 1549 1548 1547 1546 1546 1546 1546 1545 1544 1543 1542 1542 1542 1541
1533 1534 1535 1536 1538 1539 1540 1542 1543 1545 1546 1547 1548 1549 1549 1549 1549 1549 1549 1548 1549 1549 1548 1548 1549 1549 1549 1549 1548 1547 1546 1546 1544 1543 1543 1543 1542 1542 1541 1540 1539 1539 1539
1528 1529 1530 1532 1533 1534 1535 1537 1538 1541 1543 1544 1544 1545 1545 1545 1545 1545 1545 1545 1545 1545 1546 1545 1546 1546 1546 1546 1546 1545 1544 1543 1542 1541 1540 1539 1539 1538 1539 1538 1537 1537 1537
1522 1523 1525 1526 1527 1528 1529 1532 1534 1535 1537 1539 1540 1540 1540 1541 1541 1541 1541 1540 1541 1541 1542 1542 1542 1542 1542 1543 1542 1542 1541 1540 1539 1538 1537 1536 1535 1534 1535 1535 1536 1535 1534
1516 1516 1518 1519 1520 1521 1523 1525 1527 1529 1532 1533 1535 1537 1537 1536 1535 1535 1535 1535 1536 1536 1537 1537 1539 1539 1538 1539 1538 1538 1537 1536 1535 1534 1533 1532 1531 1530 1530 1530 1531 1531 1530
1508 1509 1511 1513 1513 1515 1516 1518 1520 1523 1525 1527 1529 1532 1531 1529 1528 1528 1528 1529 1530 1531 1532 1532 1533 1534 1534 1534 1533 1532 1532 1532 1531 1529 1528 1528 1526 1525 1524 1524 1524 1525 1524
1501 1502 1503 1505 1506 1508 1509 1510 1513 1516 1518 1519 1521 1522 1522 1522 1523 1524 1523 1524 1525 1525 1526 1527 1528 1529 1530 1529 1530 1528 1527 1526 1525 1524 1523 1521 1520 1518 1518 1518 1518 1518 1517
1494 1496 1496 1498 1499 1500 1502 1503 1505 1506 1508 1512 1512 1513 1515 1517 1518 1519 1520 1519 1519 1519 1521 1521 1521 1523 1524 1523 1523 1522 1522 1521 1520 1518 1517 1516 1514 1512 1510 1510 1510 1509 1508
1486 1488 1490 1491 1492 1492 1494 1496 1497 1499 1500 1503 1505 1506 1507 1508 1509 1511 1512 1512 1514 1514 1514 1515 1514 1517 1518 1519 1518 1517 1516 1515 1514 1512 1511 1510 1507 1504 1502 1500 1499 1498 1497
1478 1480 1482 1483 1483 1485 1486 1488 1489 1492 1493 1495 1496 1498 1501 1503 1504 1505 1506 1506 1507 1507 1509 1510 1509 1511 1513 1514 1511 1512 1509 1509 1507 1506 1504 1503 1500 1497 1494 1492 1490 1488 1487
1473 1474 1474 1475 1475 1476 1477 1479 1481 1483 1485 1487 1489 1492 1495 1497 1497 1497 1499 1500 1502 1502 1501 1504 1504 1504 1509 1510 1507 1506 1504 1502 1500 1498 1496 1495 1492 1489 1485 1483 1481 1479 1478
1468 1468 1468 1468 1468 1469 1469 1471 1472 1474 1476 1478 1481 1484 1484 1485 1489 1491 1491 1492 1496 1498 1496 1497 1500 1502 1504 1504 1504 1500 1499 1495 1492 1490 1488 1486 1484 1480 1476 1474 1471 1470 1469
1461 1461 1461 1461 1461 1462 1462 1463 1464 1467 1469 1472 1474 1475 1478 1479 1482 1484 1486 1488 1496 1494 1495 1498 1497 1494 1495 1497 1496 1496 1493 1488 1485 1482 1481 1478 1474 1471 1468 1465 1463 1462 1462
1457 1456 1455 1455 1455 1456 1457 1458 1458 1460 1462 1465 1467 1469 1472 1473 1474 1479 1484 1487 1490 1489 1492 1490 1492 1491 1487 1493 1494 1489 1484 1482 1479 1475 1473 1469 1466 1463 1460 1458 1456 1454 1453
1452 1451 1450 1449 1450 1450 1451 1453 1454 1455 1457 1460 1463 1467 1468 1475 1477 1479 1482 1485 1484 1484 1486 1486 1485 1485 1482 1487 1485 1482 1477 1474 1472 1469 1466 1462 1459 1456 1453 1451 1448 1446 1445
1446 1445 1446 1446 1446 1447 1448 1450 1450 1451 1454 1459 1464 1466 1470 1475 1477 1479 1480 1480 1481 1481 1479 1479 1482 1479 1480 1478 1478 1477 1471 1467 1465 1463 1458 1456 1453 1450 1447 1444 1441 1439 1437
1444 1442 1443 1442 1444 1446 1446 1448 1449 1449 1454 1459 1465 1468 1471 1473 1474 1475 1475 1476 1476 1477 1478 1479 1477 1475 1475 1473 1472 1471 1468 1463 1460 1457 1453 1449 1447 1443 1441 1438 1435 1432 1429
1442 1441 1441 1441 1443 1444 1445 1449 1453 1453 1454 1459 1463 1466 1468 1470 1472 1472 1472 1473 1473 1474 1474 1474 1473 1473 1471 1470 1470 1467 1462 1459 1455 1451 1448 1445 1442 1439 1434 1431 1427 1424 1422
1442 1442 1442 1444 1446 1448 1451 1451 1458 1457 1457 1460 1462 1462 1466 1467 1470 1471 1470 1470 1470 1470 1469 1470 1469 1468 1467 1467 1465 1463 1459 1454 1449 1446 1444 1441 1438 1432 1428 1424 1421 1417 1414
1445 1444 1446 1448 1449 1451 1453 1457 1458 1457 1458 1460 1461 1462 1465 1467 1469 1469 1468 1468 1466 1466 1465 1465 1465 1464 1462 1461 1459 1455 1453 1450 1446 1444 1441 1435 1432 1426 1422 1417 1413 1409 1405
1451 1452 1453 1454 1454 1456 1456 1458 1459 1458 1459 1462 1462 1463 1465 1466 1467 1466 1465 1464 1463 1462 1461 1460 1459 1458 1456 1455 1453 1451 1449 1446 1442 1439 1437 1429 1426 1421 1416 1410 1405 1402 1399
1456 1456 1458 1460 1461 1461 1461 1460 1461 1461 1462 1462 1463 1463 1463 1465 1464 1463 1462 1461 1460 1459 1457 1456 1454 1453 1451 1449 1447 1445 1443 1441 1436 1432 1429 1424 1419 1414 1408 1401 1397 1393 1390
1460 1461 1463 1464 1465 1465 1465 1465 1464 1463 1463 1463 1463 1462 1462 1462 1461 1460 1459 1458 1456 1455 1453 1452 1450 1448 1447 1445 1443 1442 1440 1436 1432 1426 1425 1419 1413 1409 1398 1392 1390 1388 1384
Wind_Speed
16 14 13 14 14 13 12 12 11 12 11 10 10 9 9 9 9 8 6 8 11 11 10 9 6 5 4 3 4 4 5 5 5 6 7 7 8 8 9 10 10 11 11
17 16 15 15 15 16 14 13 13 13 13 12 12 11 10 10 10 10 6 7 10 12 12 9 7 6 6 5 6 6 5 4 5 7 8 8 9 9 10 10 11 11 11
19 18 16 16 17 17 17 16 16 16 16 15 14 13 12 12 12 11 10 8 10 12 13 11 9 8 8 7 8 8 7 8 8 10 10 10 10 10 11 11 12 12 12
21 22 21 18 16 18 19 18 19 19 18 16 16 15 14 14 13 13 12 12 12 11 12 12 11 10 9 9 8 8 9 8 10 12 13 13 13 13 13 12 12 12 11
23 24 23 21 20 20 20 21 21 21 21 19 19 18 16 15 16 16 14 14 15 14 13 13 13 12 11 11 10 10 10 11 12 14 14 14 15 14 14 13 12 11 12
25 25 25 24 23 23 25 24 25 24 23 22 21 20 19 18 18 18 17 17 17 17 16 16 15 15 14 13 12 12 13 13 14 15 14 15 15 15 13 13 13 12 13
27 28 28 27 27 29 28 28 27 27 27 27 23 23 22 21 21 21 21 20 20 19 19 19 18 17 17 16 15 15 16 15 16 15 16 16 17 16 14 14 15 15 15
31 32 30 30 29 30 30 30 32 32 31 31 27 15 10 18 25 25 24 24 23 23 22 22 21 20 19 19 19 18 18 17 17 17 17 17 17 17 16 16 17 18 19
38 35 33 32 32 31 33 35 36 36 36 34 33 20 10 12 13 22 27 27 26 26 24 24 24 23 22 22 21 21 20 20 19 19 19 20 21 20 19 18 20 21 22
37 39 37 36 36 34 35 36 37 38 38 39 36 37 32 15 9 7 18 24 26 27 27 26 26 26 24 24 23 22 22 22 22 22 22 22 23 22 22 20 21 22 23
37 35 39 38 39 39 38 39 40 40 42 42 41 39 39 37 33 25 13 20 25 27 28 28 27 27 26 25 24 25 24 25 24 24 24 23 27 28 25 23 24 24 25
39 38 39 39 39 42 40 41 42 42 41 44 43 43 42 39 37 36 33 25 22 23 28 28 27 27 27 25 25 25 25 26 26 27 27 30 30 30 29 28 27 25 25
32 33 34 36 37 40 43 43 42 43 43 45 43 44 42 41 37 34 32 30 27 26 25 25 25 25 27 25 24 25 26 26 27 30 31 31 32 33 34 33 31 28 27
29 29 29 30 31 32 36 40 43 43 43 43 45 45 43 40 38 34 29 29 28 25 23 24 23 22 24 22 22 23 26 31 33 32 32 33 33 33 33 33 31 29 27
22 24 25 27 28 29 30 34 41 42 43 42 41 39 40 39 37 35 32 28 26 21 21 20 17 17 18 20 23 25 31 34 35 34 33 34 33 34 34 32 29 28 27
24 24 25 26 26 26 29 30 33 38 38 35 34 35 38 33 33 31 27 24 22 17 14 16 19 23 24 24 23 29 31 33 33 34 33 31 33 33 32 29 26 25 26
24 25 26 27 26 24 24 26 28 31 31 31 31 33 31 27 23 20 17 17 17 15 17 21 22 20 18 20 26 28 29 31 29 31 31 30 30 29 26 25 25 25 25
24 25 26 24 23 22 21 22 25 27 27 27 26 25 23 21 17 15 16 18 17 17 17 18 20 17 18 23 27 28 26 27 28 29 27 26 23 24 24 25 25 24 25
20 20 19 20 18 19 19 21 23 25 23 20 20 17 16 15 14 15 15 15 15 16 15 15 18 18 21 20 22 22 23 24 23 25 23 22 20 21 23 23 25 26 27
11 11 13 13 15 17 17 20 22 22 20 17 15 13 12 12 13 13 12 13 11 11 14 15 14 13 16 16 18 18 19 19 20 21 22 19 21 22 22 23 23 25 27
9 9 11 12 14 15 15 16 17 17 16 16 13 11 10 11 12 12 8 8 9 12 13 14 13 12 13 13 15 17 18 18 20 21 17 17 20 24 25 25 26 26 26
3 3 5 8 12 15 15 14 13 13 12 10 9 8 8 7 5 5 5 7 11 12 13 12 13 13 14 15 15 15 17 19 22 19 14 24 23 25 26 25 26 26 26
5 9 13 14 14 13 12 11 11 11 9 8 6 3 1 4 6 8 9 11 12 13 14 13 14 15 15 13 16 18 17 20 23 22 22 26 24 25 23 25 28 28 24
13 14 12 11 12 13 11 11 9 7 6 4 2 1 3 6 9 10 9 11 13 13 13 14 14 14 13 13 15 17 19 20 21 22 19 26 24 24 24 27 31 25 20
15 14 12 11 10 10 8 9 7 5 3 1 2 4 6 8 8 9 9 13 12 13 13 12 12 12 12 14 15 18 19 18 23 26 24 21 23 25 32 33 27 27 32
14 13 11 9 9 10 8 5 4 3 3 4 6 7 8 8 8 8 9 11 11 9 9 8 9 11 13 13 14 15 18 21 23 27 17 23 32 26 21 30 24 33 31
Wind_Direction
209 206 208 210 210 210 208 208 207 213 214 220 221 221 233 238 238 244 242 259 252 267 278 285 282 271 268 270 281 304 315 315 320 323 324 324 320 316 313 313 312 311 307
217 213 215 216 219 219 215 213 213 216 221 226 225 231 243 245 242 244 225 247 248 258 268 270 263 259 261 264 287 309 315 323 326 321 321 318 314 310 308 308 308 308 305
228 227 219 222 225 225 222 219 219 221 224 224 228 236 246 248 248 248 245 216 246 251 257 256 254 253 254 270 297 303 315 323 329 329 330 325 319 314 309 306 306 306 307
236 236 232 226 225 223 225 225 227 227 227 227 232 239 245 249 250 251 252 245 238 244 249 250 251 252 254 270 280 288 300 313 321 322 321 317 315 313 310 306 303 304 310
239 237 236 233 229 225 223 229 229 228 229 231 235 241 246 250 251 250 251 250 249 241 237 249 246 249 251 262 268 279 292 304 312 314 315 315 314 312 312 309 305 304 309
243 242 239 237 231 227 229 228 233 233 232 233 236 241 246 250 250 250 249 250 252 247 243 250 247 249 252 257 263 272 282 294 302 303 303 305 305 305 306 307 307 304 301
249 247 242 240 233 232 229 231 237 236 232 230 232 238 246 250 251 249 248 250 250 248 247 248 248 252 255 256 260 267 275 285 295 295 296 296 296 298 299 301 299 298 297
246 248 246 243 236 233 228 231 234 236 232 230 230 225 233 250 249 246 248 247 248 248 248 249 250 252 257 261 265 268 274 284 290 291 291 290 289 289 289 291 292 291 290
245 246 244 246 243 238 238 238 237 237 235 234 227 223 212 227 229 242 242 242 243 246 247 248 248 252 255 258 264 269 276 285 289 289 287 286 288 289 292 293 292 291 290
247 244 244 243 245 243 243 244 241 239 237 238 231 230 228 221 212 236 241 241 241 242 242 246 249 252 255 258 264 270 279 286 288 288 289 290 292 293 295 293 291 287 285
254 248 250 246 246 246 244 246 244 238 238 239 240 236 233 237 243 242 247 247 246 245 245 245 246 253 255 259 264 271 279 284 285 288 291 292 295 294 294 293 289 287 283
257 254 251 251 249 248 249 248 249 245 244 239 242 241 241 239 242 243 244 245 252 249 245 245 248 250 255 258 265 274 279 283 285 291 292 296 295 293 291 290 288 287 285
262 262 261 259 259 255 253 252 251 250 247 244 246 244 243 243 247 254 251 250 248 246 253 252 245 251 255 259 267 274 278 281 286 289 293 295 293 292 292 291 289 287 284
264 266 266 265 264 261 253 252 254 253 252 248 245 244 242 242 245 248 252 253 247 249 241 244 249 249 254 266 268 273 281 286 289 293 296 296 295 294 292 290 288 286 284
264 268 268 267 265 263 261 259 250 249 249 246 245 244 240 238 242 245 243 245 251 243 244 243 236 255 259 261 273 279 284 286 292 296 298 298 297 294 293 290 289 287 284
258 260 264 266 263 262 262 260 256 250 249 246 243 239 233 235 239 245 252 247 245 240 246 260 253 249 257 262 278 282 283 288 292 296 299 299 296 295 293 291 289 286 283
268 269 268 268 268 264 261 258 254 247 243 239 232 226 229 239 238 236 232 240 252 250 254 259 262 264 279 287 278 282 288 294 296 298 303 301 299 298 294 289 285 284 282
274 274 270 267 265 262 256 252 245 236 229 223 222 224 230 221 225 233 247 258 262 258 260 265 277 287 277 275 281 287 293 294 295 299 301 297 301 298 295 292 291 287 283
271 273 271 268 258 258 253 243 230 219 209 206 210 209 208 221 240 249 253 259 263 265 274 276 269 285 284 289 296 293 295 299 299 306 304 307 305 298 295 296 291 286 286
278 262 252 246 248 244 236 224 210 196 189 186 187 197 213 230 242 248 252 258 276 280 277 278 284 284 286 293 296 302 300 298 299 306 306 309 307 307 308 303 296 290 287
274 255 245 232 224 215 199 187 180 178 178 184 199 211 226 233 235 245 257 264 270 274 276 284 289 287 288 292 290 296 300 301 302 309 306 306 307 305 309 306 303 301 301
316 285 229 174 152 145 147 150 171 175 179 191 208 208 222 246 276 271 276 279 282 280 279 278 282 289 292 291 292 292 294 304 311 320 306 304 307 305 310 302 302 302 298
115 138 136 137 135 133 145 160 169 163 161 175 192 206 291 280 286 286 290 285 277 275 281 279 282 281 283 286 281 298 300 298 301 302 299 301 311 302 306 301 309 312 308
112 113 119 127 134 136 145 157 157 146 92 74 74 287 278 289 287 292 296 289 290 291 286 284 278 280 282 291 294 300 299 296 298 304 302 296 308 298 303 305 314 314 310
115 115 118 125 125 120 110 78 81 97 99 67 310 290 299 297 295 296 294 289 294 293 292 289 288 292 297 300 302 302 306 299 302 310 310 301 312 302 305 313 320 321 324
112 114 111 101 91 97 96 96 86 57 9 337 321 317 309 297 290 274 272 284 289 291 296 304 308 308 309 310 305 301 302 304 308 312 308 307 312 317 313 314 312 313 313